Flag for Uruguay Weather past 2 weeks in Melo, Uruguay

Now
68 °F

Clear.


Feels Like: 68 °F
Forecast: N/A
Wind: 7 mph from East

Location: Pelotas Airport

Current Time: Mar 28, 2015 at 7:57:22 PM

Latest Report: Mar 28, 2015 at 7:00 PM


Visibility: 10 mi

Pressure: 30.09 "Hg

Humidity: 73%

Dew point: 59 °F

Location of MeloLocation

Historic Weather in Melo — Graph

°F

Melo temperature yesterday

Maximum temperature yesterday: 79 °F (at 2:00 PM)
Minimum temperature yesterday: 61 °F (at 3:00 AM)
Average temperature yesterday: 67 °F

Past Weeks' High & Low Weather Summary

 TemperatureHumidityPressure
High91 °F (Mar 20, 1:00 PM)100% (Mar 14, 1:00 AM)30.15 "Hg (Mar 14, 1:00 AM)
Low57 °F (Mar 23, 6:00 AM)38% (Mar 19, 3:00 PM)29.74 "Hg (Mar 20, 4:00 PM)
Average72 °F82%30.01 "Hg
* Reported Mar 13 7:00 PM — Mar 28 7:00 PM, Melo, Weather by CustomWeather, © 2015

Note: Actual official high and low records may vary slightly from our data, if they occured in-between our weather recording intervals... More about our weather records

Advertising

Melo weather history for previous 24 hours

 ConditionsComfort  
Time TempWeatherWind HumidityBarometerVisibility
7:00 PM
Sat, Mar 28
68 °FClear.7 mph73%30.09 "Hg10 mi
4:00 PM75 °FPassing clouds.10 mph61%30.09 "HgN/A
3:00 PM77 °FScattered clouds.13 mph57%30.09 "HgN/A
2:00 PM77 °FScattered clouds.12 mph57%30.12 "HgN/A
1:00 PM79 °FScattered clouds.12 mph51%30.12 "HgN/A
6:00 AM59 °FFog.3 mph100%30.12 "Hg0 mi
5:00 AM59 °FFog.2 mph100%30.12 "Hg0 mi
4:00 AM59 °FLight fog.5 mph100%30.12 "Hg5 mi
3:00 AM59 °FLight fog.2 mph100%30.12 "Hg5 mi
2:00 AM61 °FLight fog.2 mph100%30.12 "Hg5 mi
1:00 AM61 °FLight fog.No wind100%30.12 "HgN/A
12:00 AM63 °FLight fog.2 mph100%30.12 "HgN/A
11:00 PM
Fri, Mar 27
63 °FClear.No wind100%30.12 "Hg10 mi
10:00 PM63 °FClear.2 mph100%30.12 "Hg10 mi
9:00 PM64 °FPassing clouds.No wind100%30.09 "HgN/A
8:00 PM66 °FPassing clouds.3 mph94%30.09 "HgN/A
7:00 PM68 °FPassing clouds.7 mph88%30.07 "HgN/A
Weather by CustomWeather, © 2015

See weather overviewHow to use our weather pages